| time (UTC) | temp C | wind direction | speed KPH | gust KPH | rain 1hr cm | rain 24hr cm | rain mn cm | humidity % | barometer mb |
| 20260906173736 | 25 | 306 | 1.6 | 3.2 | 0.00 | 0.00 | 0.00 | 68 | 1024.6 |
| 20260906173232 | 25 | 7 | 0.0 | 4.8 | 0.00 | 0.00 | 0.00 | 69 | 1024.4 |
| 20260906172731 | 24 | 239 | 4.8 | 4.8 | 0.00 | 0.00 | 0.00 | 67 | 1024.7 |
| 20260906172226 | 23 | 166 | 3.2 | 3.2 | 0.00 | 0.00 | 0.00 | 68 | 1024.6 |
| 20260906171721 | 23 | 252 | 3.2 | 9.7 | 0.00 | 0.00 | 0.00 | 69 | 1024.4 |
| 20260906171216 | 25 | 121 | 4.8 | 4.8 | 0.00 | 0.00 | 0.00 | 66 | 1024.8 |
| 20260906170713 | 23 | 282 | 1.6 | 3.2 | 0.00 | 0.00 | 0.00 | 67 | 1024.7 |
| 20260906170213 | 25 | 152 | 3.2 | 8.0 | 0.00 | 0.00 | 0.00 | 66 | 1024.8 |
| 20260906165709 | 25 | 234 | 4.8 | 4.8 | 0.00 | 0.00 | 0.00 | 65 | 1025.0 |
| 20260906165204 | 24 | 256 | 0.0 | 3.2 | 0.00 | 0.00 | 0.00 | 67 | 1024.9 |
| 20260906164702 | 25 | 110 | 0.0 | 4.8 | 0.00 | 0.00 | 0.00 | 67 | 1024.8 |
| 20260906164158 | 25 | 263 | 1.6 | 3.2 | 0.00 | 0.00 | 0.00 | 66 | 1024.8 |
| 20260906163654 | 23 | 260 | 3.2 | 4.8 | 0.00 | 0.00 | 0.00 | 68 | 1024.9 |
| 20260906163150 | 26 | 247 | 3.2 | 3.2 | 0.00 | 0.00 | 0.00 | 65 | 1024.8 |
| 20260906162647 | 25 | 267 | 0.0 | 1.6 | 0.00 | 0.00 | 0.00 | 66 | 1024.8 |
| 20260906162146 | 25 | 133 | 1.6 | 4.8 | 0.00 | 0.00 | 0.00 | 68 | 1024.6 |
| 20260906161641 | 24 | 244 | 1.6 | 4.8 | 0.00 | 0.00 | 0.00 | 66 | 1024.8 |
| 20260906161140 | 23 | 277 | 1.6 | 4.8 | 0.00 | 0.00 | 0.00 | 71 | 1024.7 |
| 20260906160639 | 23 | 126 | 0.0 | 9.7 | 0.00 | 0.00 | 0.00 | 69 | 1024.7 |
| 20260906160139 | 25 | 265 | 1.6 | 4.8 | 0.00 | 0.00 | 0.00 | 66 | 1024.6 |
| 20260906155636 | 23 | 83 | 0.0 | 11.3 | 0.00 | 0.00 | 0.00 | 68 | 1024.4 |
| 20260906155132 | 23 | 55 | 1.6 | 3.2 | 0.00 | 0.00 | 0.00 | 65 | 1024.7 |
| 20260906154627 | 24 | 78 | 0.0 | 3.2 | 0.00 | 0.00 | 0.00 | 70 | 1024.7 |
| 20260906154127 | 23 | 90 | 4.8 | 9.7 | 0.00 | 0.00 | 0.00 | 70 | 1024.8 |
| 20260906153625 | 22 | 252 | 1.6 | 3.2 | 0.00 | 0.00 | 0.00 | 67 | 1024.8 |
| 20260906153121 | 22 | 242 | 1.6 | 4.8 | 0.00 | 0.00 | 0.00 | 70 | 1024.8 |
| 20260906152615 | 22 | 114 | 4.8 | 4.8 | 0.00 | 0.00 | 0.00 | 71 | 1024.4 |
| 20260906152109 | 22 | 158 | 3.2 | 4.8 | 0.00 | 0.00 | 0.00 | 70 | 1024.9 |
| 20260906151604 | 22 | 271 | 1.6 | 3.2 | 0.00 | 0.00 | 0.00 | 71 | 1024.6 |
| 20260906151100 | 21 | 217 | 4.8 | 9.7 | 0.00 | 0.00 | 0.00 | 72 | 1024.4 |
| 20260906150555 | 21 | 252 | 0.0 | 3.2 | 0.00 | 0.00 | 0.00 | 71 | 1024.4 |
| 20260906150050 | 21 | 223 | 1.6 | 1.6 | 0.00 | 0.00 | 0.00 | 70 | 1024.4 |
| 20260906145549 | 21 | 176 | 3.2 | 8.0 | 0.00 | 0.00 | 0.00 | 72 | 1024.6 |
| 20260906145044 | 22 | 200 | 3.2 | 8.0 | 0.00 | 0.00 | 0.00 | 71 | 1024.6 |
| 20260906144538 | 21 | 150 | 3.2 | 3.2 | 0.00 | 0.00 | 0.00 | 73 | 1024.7 |
| 20260906144034 | 21 | 157 | 6.4 | 8.0 | 0.00 | 0.00 | 0.00 | 72 | 1024.6 |
| 20260906143529 | 21 | 27 | 1.6 | 3.2 | 0.00 | 0.00 | 0.00 | 73 | 1024.4 |
| 20260906143026 | 21 | 145 | 1.6 | 3.2 | 0.00 | 0.00 | 0.00 | 74 | 1024.6 |
| 20260906142525 | 21 | 254 | 1.6 | 4.8 | 0.00 | 0.00 | 0.00 | 77 | 1024.7 |
| 20260906142021 | 21 | 267 | 0.0 | 1.6 | 0.00 | 0.00 | 0.00 | 78 | 1024.6 |
| 20260906141519 | 20 | 172 | 1.6 | 4.8 | 0.00 | 0.00 | 0.00 | 80 | 1024.7 |
| 20260906141015 | 20 | 199 | 3.2 | 3.2 | 0.00 | 0.00 | 0.00 | 79 | 1024.6 |
| 20260906140509 | 20 | 201 | 0.0 | 4.8 | 0.00 | 0.00 | 0.00 | 82 | 1025.1 |
| 20260906140008 | 20 | 107 | 3.2 | 4.8 | 0.00 | 0.00 | 0.00 | 83 | 1024.9 |
| 20260906135505 | 19 | 143 | 4.8 | 8.0 | 0.00 | 0.00 | 0.00 | 84 | 1024.7 |
| 20260906135001 | 19 | 147 | 1.6 | 8.0 | 0.00 | 0.00 | 0.00 | 84 | 1025.0 |
| 20260906134457 | 18 | 145 | 4.8 | 4.8 | 0.00 | 0.00 | 0.00 | 85 | 1024.8 |
| 20260906133956 | 18 | 133 | 1.6 | 8.0 | 0.00 | 0.00 | 0.00 | 86 | 1024.9 |
| 20260906133453 | 18 | 169 | 1.6 | 3.2 | 0.00 | 0.00 | 0.00 | 85 | 1024.9 |
| 20260906132948 | 18 | 263 | 0.0 | 4.8 | 0.00 | 0.00 | 0.00 | 86 | 1025.0 |
| 20260906132443 | 18 | 280 | 0.0 | 4.8 | 0.00 | 0.00 | 0.00 | 87 | 1024.6 |
| 20260906131938 | 18 | 56 | 1.6 | 3.2 | 0.00 | 0.00 | 0.00 | 87 | 1024.7 |
| 20260906131433 | 18 | 251 | 0.0 | 0.0 | 0.00 | 0.00 | 0.00 | 88 | 1024.6 |
| 20260906130929 | 18 | 288 | 0.0 | 1.6 | 0.00 | 0.00 | 0.00 | 87 | 1024.6 |
| 20260906130429 | 17 | 183 | 3.2 | 3.2 | 0.00 | 0.00 | 0.00 | 89 | 1024.6 |
| 20260906125929 | 16 | 253 | 0.0 | 1.6 | 0.00 | 0.00 | 0.00 | 95 | 1024.6 |
| 20260906125426 | 15 | 138 | 1.6 | 3.2 | 0.00 | 0.00 | 0.00 | 99 | 1024.6 |
| 20260906124925 | 15 | 256 | 0.0 | 0.0 | 0.00 | 0.00 | 0.00 | 99 | 1024.6 |
| 20260906124422 | 15 | 337 | 0.0 | 3.2 | 0.00 | 0.00 | 0.00 | 99 | 1024.6 |
| 20260906123916 | 15 | 286 | 0.0 | 0.0 | 0.00 | 0.00 | 0.00 | 99 | 1024.4 |
| 20260906123415 | 15 | 234 | 0.0 | 0.0 | 0.00 | 0.00 | 0.00 | 99 | 1024.6 |
| 20260906122915 | 15 | 273 | 0.0 | 0.0 | 0.00 | 0.00 | 0.00 | 99 | 1024.4 |
| 20260906122410 | 13 | 275 | 0.0 | 0.0 | 0.00 | 0.00 | 0.00 | 99 | 1024.2 |
| 20260906121907 | 13 | 276 | 0.0 | 0.0 | 0.00 | 0.00 | 0.00 | 99 | 1024.6 |
| 20260906121403 | 13 | 278 | 0.0 | 0.0 | 0.00 | 0.00 | 0.00 | 99 | 1024.3 |
| 20260906120859 | 13 | 280 | 0.0 | 0.0 | 0.00 | 0.00 | 0.00 | 99 | 1024.3 |
| 20260906120354 | 13 | 280 | 0.0 | 0.0 | 0.00 | 0.00 | 0.00 | 99 | 1024.2 |
| 20260906115850 | 13 | 272 | 0.0 | 0.0 | 0.00 | 0.00 | 0.00 | 99 | 1024.2 |
| 20260906115346 | 13 | 272 | 0.0 | 0.0 | 0.00 | 0.00 | 0.00 | 99 | 1024.1 |
| 20260906114845 | 13 | 278 | 0.0 | 0.0 | 0.00 | 0.00 | 0.00 | 99 | 1023.8 |
| 20260906114340 | 13 | 277 | 0.0 | 0.0 | 0.00 | 0.00 | 0.00 | 99 | 1023.9 |
| 20260906113835 | 13 | 278 | 0.0 | 0.0 | 0.00 | 0.00 | 0.00 | 99 | 1023.9 |
| 20260906113334 | 12 | 280 | 0.0 | 0.0 | 0.00 | 0.00 | 0.00 | 99 | 1023.8 |
| 20260906112830 | 12 | 273 | 0.0 | 0.0 | 0.00 | 0.00 | 0.00 | 99 | 1023.8 |
| 20260906112326 | 13 | 267 | 0.0 | 0.0 | 0.00 | 0.00 | 0.00 | 99 | 1023.7 |
| 20260906111826 | 12 | 279 | 0.0 | 0.0 | 0.00 | 0.00 | 0.00 | 99 | 1023.9 |
| 20260906111320 | 12 | 273 | 0.0 | 0.0 | 0.00 | 0.00 | 0.00 | 99 | 1023.5 |
| 20260906110815 | 12 | 271 | 0.0 | 0.0 | 0.00 | 0.00 | 0.00 | 99 | 1023.7 |
| 20260906110311 | 12 | 271 | 0.0 | 0.0 | 0.00 | 0.00 | 0.00 | 99 | 1023.8 |
| 20260906105809 | 12 | 272 | 0.0 | 0.0 | 0.00 | 0.00 | 0.00 | 99 | 1023.7 |
| 20260906105306 | 13 | 272 | 0.0 | 0.0 | 0.00 | 0.00 | 0.00 | 99 | 1023.5 |
| 20260906104801 | 13 | 274 | 0.0 | 0.0 | 0.00 | 0.00 | 0.00 | 99 | 1023.8 |
| 20260906104259 | 13 | 274 | 0.0 | 0.0 | 0.00 | 0.00 | 0.00 | 99 | 1023.7 |
| 20260906103758 | 13 | 279 | 0.0 | 0.0 | 0.00 | 0.00 | 0.00 | 99 | 1023.4 |
| 20260906103257 | 13 | 271 | 0.0 | 0.0 | 0.00 | 0.00 | 0.00 | 99 | 1023.5 |
| 20260906102753 | 13 | 271 | 0.0 | 0.0 | 0.00 | 0.00 | 0.00 | 99 | 1023.4 |
| 20260906102252 | 13 | 272 | 0.0 | 0.0 | 0.00 | 0.00 | 0.00 | 99 | 1023.4 |
| 20260906101747 | 13 | 272 | 0.0 | 0.0 | 0.00 | 0.00 | 0.00 | 99 | 1023.4 |
| 20260906101242 | 13 | 273 | 0.0 | 0.0 | 0.00 | 0.00 | 0.00 | 99 | 1023.2 |
| 20260906100738 | 13 | 270 | 0.0 | 0.0 | 0.00 | 0.00 | 0.00 | 99 | 1023.4 |
| 20260906100237 | 13 | 273 | 0.0 | 0.0 | 0.00 | 0.00 | 0.00 | 99 | 1023.4 |
| 20260906095733 | 13 | 276 | 0.0 | 0.0 | 0.00 | 0.00 | 0.00 | 99 | 1023.3 |
| 20260906095228 | 13 | 274 | 0.0 | 0.0 | 0.00 | 0.00 | 0.00 | 99 | 1023.4 |
| 20260906094727 | 13 | 277 | 0.0 | 0.0 | 0.00 | 0.00 | 0.00 | 99 | 1023.4 |
| 20260906094222 | 13 | 277 | 0.0 | 0.0 | 0.00 | 0.00 | 0.00 | 99 | 1023.4 |
| 20260906093718 | 13 | 276 | 0.0 | 0.0 | 0.00 | 0.00 | 0.00 | 99 | 1023.4 |
| 20260906093214 | 13 | 276 | 0.0 | 0.0 | 0.00 | 0.00 | 0.00 | 99 | 1023.4 |
| 20260906092709 | 13 | 272 | 0.0 | 0.0 | 0.00 | 0.00 | 0.00 | 99 | 1023.3 |
| 20260906092208 | 13 | 272 | 0.0 | 0.0 | 0.00 | 0.00 | 0.00 | 99 | 1023.7 |
| 20260906091705 | 13 | 272 | 0.0 | 0.0 | 0.00 | 0.00 | 0.00 | 99 | 1023.5 |
| 20260906091201 | 13 | 273 | 0.0 | 0.0 | 0.00 | 0.00 | 0.00 | 99 | 1023.6 |
| 20260906090657 | 13 | 271 | 0.0 | 0.0 | 0.00 | 0.00 | 0.00 | 99 | 1023.5 |
| 20260906090156 | 13 | 266 | 0.0 | 0.0 | 0.00 | 0.00 | 0.00 | 99 | 1023.3 |
| 20260906085655 | 14 | 266 | 0.0 | 0.0 | 0.00 | 0.00 | 0.00 | 99 | 1023.2 |
| 20260906085154 | 14 | 262 | 0.0 | 0.0 | 0.00 | 0.00 | 0.00 | 99 | 1023.3 |
| 20260906084649 | 14 | 280 | 0.0 | 0.0 | 0.00 | 0.00 | 0.00 | 99 | 1023.3 |
| 20260906084149 | 14 | 279 | 0.0 | 0.0 | 0.00 | 0.00 | 0.00 | 99 | 1023.6 |
| 20260906083644 | 15 | 280 | 0.0 | 0.0 | 0.00 | 0.00 | 0.00 | 99 | 1023.5 |
| 20260906083139 | 15 | 277 | 0.0 | 0.0 | 0.00 | 0.00 | 0.00 | 99 | 1023.5 |
| 20260906082634 | 15 | 285 | 0.0 | 0.0 | 0.00 | 0.00 | 0.00 | 99 | 1023.5 |
| 20260906082130 | 15 | 285 | 0.0 | 0.0 | 0.00 | 0.00 | 0.00 | 99 | 1023.3 |
| 20260906081626 | 15 | 285 | 0.0 | 0.0 | 0.00 | 0.00 | 0.00 | 99 | 1023.5 |
| 20260906081120 | 15 | 285 | 0.0 | 0.0 | 0.00 | 0.00 | 0.00 | 99 | 1023.4 |
| 20260906080617 | 15 | 285 | 0.0 | 0.0 | 0.00 | 0.00 | 0.00 | 99 | 1023.3 |
| 20260906080113 | 15 | 286 | 0.0 | 0.0 | 0.00 | 0.00 | 0.00 | 99 | 1023.2 |
| 20260906075613 | 15 | 286 | 0.0 | 0.0 | 0.00 | 0.00 | 0.00 | 99 | 1023.6 |
| 20260906075107 | 15 | 284 | 0.0 | 0.0 | 0.00 | 0.00 | 0.00 | 99 | 1023.5 |
| 20260906074602 | 15 | 285 | 0.0 | 0.0 | 0.00 | 0.00 | 0.00 | 99 | 1023.4 |
| 20260906074055 | 15 | 286 | 0.0 | 0.0 | 0.00 | 0.00 | 0.00 | 99 | 1023.3 |
| 20260906073550 | 15 | 286 | 0.0 | 0.0 | 0.00 | 0.00 | 0.00 | 99 | 1023.3 |
| 20260906073046 | 15 | 287 | 0.0 | 0.0 | 0.00 | 0.00 | 0.00 | 99 | 1023.3 |
| 20260906072541 | 15 | 288 | 0.0 | 0.0 | 0.00 | 0.00 | 0.00 | 99 | 1023.1 |
| 20260906072037 | 15 | 283 | 0.0 | 0.0 | 0.00 | 0.00 | 0.00 | 99 | 1023.3 |
| 20260906071533 | 14 | 280 | 0.0 | 0.0 | 0.00 | 0.00 | 0.00 | 99 | 1023.2 |
| 20260906071028 | 14 | 280 | 0.0 | 0.0 | 0.00 | 0.00 | 0.00 | 99 | 1022.9 |
| 20260906070524 | 14 | 280 | 0.0 | 0.0 | 0.00 | 0.00 | 0.00 | 99 | 1023.0 |
| 20260906070020 | 15 | 281 | 0.0 | 0.0 | 0.00 | 0.00 | 0.00 | 99 | 1023.2 |
| 20260906065519 | 15 | 281 | 0.0 | 0.0 | 0.00 | 0.00 | 0.00 | 99 | 1023.2 |
| 20260906065015 | 15 | 280 | 0.0 | 0.0 | 0.00 | 0.00 | 0.00 | 99 | 1023.1 |
| 20260906064511 | 15 | 280 | 0.0 | 0.0 | 0.00 | 0.00 | 0.00 | 99 | 1023.1 |
| 20260906064005 | 15 | 279 | 0.0 | 0.0 | 0.00 | 0.00 | 0.00 | 99 | 1023.3 |
| 20260906063455 | 15 | 279 | 0.0 | 0.0 | 0.00 | 0.00 | 0.00 | 99 | 1023.4 |
| 20260906062955 | 15 | 279 | 0.0 | 0.0 | 0.00 | 0.00 | 0.00 | 99 | 1023.4 |
| 20260906062450 | 15 | 279 | 0.0 | 0.0 | 0.00 | 0.00 | 0.00 | 99 | 1023.3 |
| 20260906061945 | 15 | 279 | 0.0 | 0.0 | 0.00 | 0.00 | 0.00 | 99 | 1023.6 |
| 20260906061436 | 15 | 282 | 0.0 | 0.0 | 0.00 | 0.00 | 0.00 | 99 | 1023.5 |
| 20260906060935 | 15 | 280 | 0.0 | 0.0 | 0.00 | 0.00 | 0.00 | 99 | 1023.4 |
| 20260906060433 | 15 | 280 | 0.0 | 0.0 | 0.00 | 0.00 | 0.00 | 99 | 1023.4 |
| 20260906055929 | 15 | 283 | 0.0 | 0.0 | 0.00 | 0.00 | 0.00 | 99 | 1023.4 |
| 20260906055425 | 15 | 216 | 0.0 | 0.0 | 0.00 | 0.00 | 0.00 | 99 | 1023.3 |
| 20260906054920 | 15 | 216 | 0.0 | 0.0 | 0.00 | 0.00 | 0.00 | 99 | 1023.1 |
| 20260906054414 | 15 | 214 | 0.0 | 0.0 | 0.00 | 0.00 | 0.00 | 99 | 1023.0 |
| 20260906053911 | 15 | 214 | 0.0 | 0.0 | 0.00 | 0.00 | 0.00 | 99 | 1022.9 |
| 20260906053406 | 15 | 214 | 0.0 | 0.0 | 0.00 | 0.00 | 0.00 | 99 | 1023.0 |
| 20260906052902 | 15 | 215 | 0.0 | 0.0 | 0.00 | 0.00 | 0.00 | 99 | 1022.8 |
| 20260906052358 | 15 | 215 | 0.0 | 0.0 | 0.00 | 0.00 | 0.00 | 99 | 1022.8 |
| 20260906051855 | 15 | 215 | 0.0 | 0.0 | 0.00 | 0.00 | 0.00 | 99 | 1023.0 |
| 20260906051354 | 15 | 215 | 0.0 | 0.0 | 0.00 | 0.00 | 0.00 | 99 | 1022.8 |
| 20260906050850 | 15 | 215 | 0.0 | 0.0 | 0.00 | 0.00 | 0.00 | 99 | 1022.9 |
| 20260906050345 | 15 | 215 | 0.0 | 0.0 | 0.00 | 0.00 | 0.00 | 99 | 1022.7 |
| 20260906045844 | 15 | 214 | 0.0 | 0.0 | 0.00 | 0.00 | 0.00 | 99 | 1022.3 |
| 20260906045338 | 15 | 214 | 0.0 | 0.0 | 0.00 | 0.00 | 0.00 | 99 | 1022.8 |
| 20260906044835 | 15 | 214 | 0.0 | 0.0 | 0.00 | 0.00 | 0.00 | 99 | 1022.5 |
| 20260906044334 | 15 | 214 | 0.0 | 0.0 | 0.00 | 0.00 | 0.00 | 99 | 1022.2 |
| 20260906043830 | 15 | 214 | 0.0 | 0.0 | 0.00 | 0.00 | 0.00 | 99 | 1022.3 |
| 20260906043326 | 15 | 214 | 0.0 | 0.0 | 0.00 | 0.00 | 0.00 | 99 | 1022.5 |
| 20260906042827 | 16 | 214 | 0.0 | 0.0 | 0.00 | 0.00 | 0.00 | 99 | 1022.1 |
| 20260906042325 | 16 | 215 | 0.0 | 0.0 | 0.00 | 0.00 | 0.00 | 99 | 1022.5 |
| 20260906041821 | 16 | 215 | 0.0 | 0.0 | 0.00 | 0.00 | 0.00 | 99 | 1022.1 |
| 20260906041317 | 16 | 214 | 0.0 | 0.0 | 0.00 | 0.00 | 0.00 | 99 | 1022.3 |
| 20260906040811 | 16 | 214 | 0.0 | 0.0 | 0.00 | 0.00 | 0.00 | 99 | 1022.0 |
| 20260906040307 | 16 | 214 | 0.0 | 0.0 | 0.00 | 0.00 | 0.00 | 99 | 1022.1 |
| 20260906035802 | 16 | 232 | 0.0 | 0.0 | 0.00 | 0.00 | 0.00 | 99 | 1022.0 |
| 20260906035257 | 16 | 230 | 0.0 | 0.0 | 0.00 | 0.00 | 0.00 | 99 | 1022.1 |
| 20260906034757 | 16 | 232 | 0.0 | 0.0 | 0.00 | 0.00 | 0.00 | 99 | 1022.1 |
| 20260906034252 | 16 | 228 | 0.0 | 1.6 | 0.00 | 0.00 | 0.00 | 99 | 1022.0 |
| 20260906033748 | 16 | 196 | 0.0 | 1.6 | 0.00 | 0.00 | 0.00 | 99 | 1022.1 |
| 20260906033247 | 17 | 198 | 0.0 | 0.0 | 0.00 | 0.00 | 0.00 | 99 | 1021.9 |
| 20260906032744 | 17 | 198 | 0.0 | 1.6 | 0.00 | 0.00 | 0.00 | 99 | 1022.1 |
| 20260906032244 | 17 | 197 | 0.0 | 0.0 | 0.00 | 0.00 | 0.00 | 99 | 1021.9 |
| 20260906031739 | 17 | 194 | 0.0 | 0.0 | 0.00 | 0.00 | 0.00 | 99 | 1021.9 |
| 20260906031235 | 17 | 196 | 0.0 | 0.0 | 0.00 | 0.00 | 0.00 | 99 | 1021.8 |
| 20260906030734 | 17 | 201 | 0.0 | 0.0 | 0.00 | 0.00 | 0.00 | 99 | 1021.9 |
| 20260906030230 | 17 | 200 | 0.0 | 0.0 | 0.00 | 0.00 | 0.00 | 99 | 1021.7 |
| 20260906025729 | 17 | 205 | 0.0 | 0.0 | 0.00 | 0.00 | 0.00 | 99 | 1021.9 |
| 20260906025224 | 17 | 205 | 0.0 | 0.0 | 0.00 | 0.00 | 0.00 | 99 | 1021.7 |
| 20260906024723 | 17 | 205 | 0.0 | 0.0 | 0.00 | 0.00 | 0.00 | 99 | 1021.8 |
| 20260906024222 | 17 | 208 | 0.0 | 0.0 | 0.00 | 0.00 | 0.00 | 99 | 1021.9 |
| 20260906023718 | 17 | 208 | 0.0 | 1.6 | 0.00 | 0.00 | 0.00 | 99 | 1022.0 |
| 20260906023213 | 17 | 184 | 1.6 | 3.2 | 0.00 | 0.00 | 0.00 | 99 | 1021.6 |
| 20260906022708 | 17 | 196 | 0.0 | 0.0 | 0.00 | 0.00 | 0.00 | 99 | 1021.7 |
| 20260906022203 | 17 | 196 | 0.0 | 0.0 | 0.00 | 0.00 | 0.00 | 99 | 1021.9 |
| 20260906021659 | 17 | 196 | 0.0 | 0.0 | 0.00 | 0.00 | 0.00 | 99 | 1021.8 |
| 20260906021157 | 17 | 196 | 0.0 | 0.0 | 0.00 | 0.00 | 0.00 | 99 | 1021.8 |
| 20260906020653 | 17 | 196 | 0.0 | 0.0 | 0.00 | 0.00 | 0.00 | 99 | 1021.8 |
| 20260906020148 | 17 | 196 | 0.0 | 0.0 | 0.00 | 0.00 | 0.00 | 99 | 1021.7 |
| 20260906015642 | 17 | 196 | 0.0 | 0.0 | 0.00 | 0.00 | 0.00 | 99 | 1021.5 |
| 20260906015140 | 17 | 196 | 0.0 | 0.0 | 0.00 | 0.00 | 0.00 | 99 | 1021.6 |
| 20260906014635 | 18 | 195 | 0.0 | 0.0 | 0.00 | 0.00 | 0.00 | 99 | 1021.6 |
| 20260906014131 | 18 | 194 | 0.0 | 0.0 | 0.00 | 0.00 | 0.00 | 98 | 1021.6 |
| 20260906013626 | 18 | 194 | 0.0 | 0.0 | 0.00 | 0.00 | 0.00 | 98 | 1021.4 |
| 20260906013122 | 18 | 194 | 0.0 | 0.0 | 0.00 | 0.00 | 0.00 | 98 | 1021.4 |
| 20260906012616 | 18 | 194 | 0.0 | 0.0 | 0.00 | 0.00 | 0.00 | 97 | 1021.5 |
| 20260906012116 | 18 | 241 | 0.0 | 1.6 | 0.00 | 0.00 | 0.00 | 96 | 1021.3 |
| 20260906011612 | 18 | 224 | 0.0 | 1.6 | 0.00 | 0.00 | 0.00 | 96 | 1021.2 |
| 20260906011107 | 18 | 219 | 0.0 | 1.6 | 0.00 | 0.00 | 0.00 | 96 | 1021.2 |
| 20260906010602 | 18 | 216 | 0.0 | 1.6 | 0.00 | 0.00 | 0.00 | 96 | 1021.1 |
| 20260906010058 | 19 | 269 | 0.0 | 0.0 | 0.00 | 0.00 | 0.00 | 94 | 1021.2 |
| 20260906005557 | 20 | 268 | 0.0 | 0.0 | 0.00 | 0.00 | 0.00 | 93 | 1021.1 |
| 20260906005057 | 20 | 256 | 0.0 | 0.0 | 0.00 | 0.00 | 0.00 | 91 | 1021.1 |
| 20260906004556 | 20 | 272 | 0.0 | 0.0 | 0.00 | 0.00 | 0.00 | 90 | 1021.2 |
| 20260906004051 | 20 | 249 | 0.0 | 0.0 | 0.00 | 0.00 | 0.00 | 93 | 1021.2 |
| 20260906003546 | 20 | 265 | 0.0 | 0.0 | 0.00 | 0.00 | 0.00 | 92 | 1021.2 |
| 20260906003043 | 20 | 270 | 0.0 | 0.0 | 0.00 | 0.00 | 0.00 | 91 | 1021.2 |
| 20260906002543 | 20 | 257 | 0.0 | 1.6 | 0.00 | 0.00 | 0.00 | 90 | 1021.2 |
| 20260906002037 | 20 | 240 | 0.0 | 0.0 | 0.00 | 0.00 | 0.00 | 90 | 1021.0 |
| 20260906001533 | 21 | 227 | 0.0 | 0.0 | 0.00 | 0.00 | 0.00 | 89 | 1021.1 |
| 20260906001032 | 21 | 225 | 0.0 | 1.6 | 0.00 | 0.00 | 0.00 | 89 | 1021.1 |
| 20260906000529 | 21 | 272 | 0.0 | 1.6 | 0.00 | 0.00 | 0.00 | 88 | 1021.0 |
| 20260906000024 | 21 | 102 | 0.0 | 3.2 | 0.00 | 0.00 | 0.00 | 87 | 1021.2 |
| 20260905235518 | 21 | 237 | 0.0 | 0.0 | 0.00 | 0.00 | 0.00 | 86 | 1021.0 |
| 20260905235013 | 22 | 256 | 0.0 | 0.0 | 0.00 | 0.00 | 0.00 | 85 | 1021.0 |
| 20260905234509 | 22 | 258 | 0.0 | 1.6 | 0.00 | 0.00 | 0.00 | 83 | 1020.9 |
| 20260905234009 | 22 | 147 | 1.6 | 4.8 | 0.00 | 0.00 | 0.00 | 83 | 1020.9 |
| 20260905233504 | 22 | 256 | 0.0 | 1.6 | 0.00 | 0.00 | 0.00 | 83 | 1021.1 |
| 20260905233003 | 22 | 239 | 0.0 | 1.6 | 0.00 | 0.00 | 0.00 | 82 | 1020.9 |
| 20260905232459 | 22 | 230 | 1.6 | 4.8 | 0.00 | 0.00 | 0.00 | 80 | 1021.0 |
| 20260905231954 | 23 | 95 | 0.0 | 0.0 | 0.00 | 0.00 | 0.00 | 80 | 1021.2 |
| 20260905231449 | 23 | 159 | 3.2 | 4.8 | 0.00 | 0.00 | 0.00 | 79 | 1020.9 |
| 20260905230940 | 23 | 243 | 0.0 | 1.6 | 0.00 | 0.00 | 0.00 | 78 | 1021.1 |
| 20260905230438 | 23 | 238 | 0.0 | 1.6 | 0.00 | 0.00 | 0.00 | 79 | 1020.9 |
| 20260905225931 | 23 | 176 | 1.6 | 3.2 | 0.00 | 0.00 | 0.00 | 78 | 1020.8 |
| 20260905225427 | 23 | 12 | 1.6 | 4.8 | 0.00 | 0.00 | 0.00 | 78 | 1020.8 |
| 20260905224921 | 23 | 232 | 1.6 | 4.8 | 0.00 | 0.00 | 0.00 | 78 | 1020.9 |
| 20260905224417 | 23 | 348 | 1.6 | 3.2 | 0.00 | 0.00 | 0.00 | 79 | 1020.8 |
| 20260905223916 | 23 | 271 | 0.0 | 4.8 | 0.00 | 0.00 | 0.00 | 78 | 1020.8 |
| 20260905223414 | 22 | 145 | 1.6 | 3.2 | 0.00 | 0.00 | 0.00 | 80 | 1020.9 |
| 20260905222909 | 22 | 271 | 0.0 | 4.8 | 0.00 | 0.00 | 0.00 | 81 | 1020.8 |
| 20260905222408 | 22 | 213 | 0.0 | 3.2 | 0.00 | 0.00 | 0.00 | 80 | 1021.1 |
| 20260905221904 | 23 | 221 | 0.0 | 0.0 | 0.00 | 0.00 | 0.00 | 77 | 1021.0 |
| 20260905221401 | 23 | 277 | 0.0 | 1.6 | 0.00 | 0.00 | 0.00 | 76 | 1021.1 |
| 20260905220856 | 24 | 88 | 4.8 | 8.0 | 0.00 | 0.00 | 0.00 | 73 | 1021.1 |
| 20260905220352 | 24 | 88 | 4.8 | 4.8 | 0.00 | 0.00 | 0.00 | 70 | 1021.0 |
| 20260905215851 | 25 | 246 | 0.0 | 8.0 | 0.00 | 0.00 | 0.00 | 71 | 1021.1 |
| 20260905215347 | 25 | 192 | 3.2 | 4.8 | 0.00 | 0.00 | 0.00 | 71 | 1021.2 |
| 20260905214843 | 25 | 252 | 0.0 | 1.6 | 0.00 | 0.00 | 0.00 | 71 | 1021.2 |
| 20260905214338 | 24 | 50 | 1.6 | 3.2 | 0.00 | 0.00 | 0.00 | 73 | 1021.2 |
| 20260905213833 | 23 | 190 | 1.6 | 3.2 | 0.00 | 0.00 | 0.00 | 75 | 1021.5 |
| 20260905213330 | 25 | 97 | 4.8 | 4.8 | 0.00 | 0.00 | 0.00 | 71 | 1021.2 |
| 20260905212824 | 25 | 269 | 0.0 | 1.6 | 0.00 | 0.00 | 0.00 | 72 | 1021.2 |
| 20260905212324 | 24 | 253 | 0.0 | 1.6 | 0.00 | 0.00 | 0.00 | 72 | 1021.4 |
| 20260905211818 | 23 | 262 | 1.6 | 3.2 | 0.00 | 0.00 | 0.00 | 72 | 1021.2 |
| 20260905211314 | 23 | 300 | 3.2 | 3.2 | 0.00 | 0.00 | 0.00 | 76 | 1021.0 |
| 20260905210811 | 23 | 258 | 0.0 | 1.6 | 0.00 | 0.00 | 0.00 | 74 | 1021.2 |
| 20260905210310 | 23 | 253 | 0.0 | 1.6 | 0.00 | 0.00 | 0.00 | 73 | 1021.2 |
| 20260905205809 | 24 | 0 | 0.0 | 4.8 | 0.00 | 0.00 | 0.00 | 73 | 1021.3 |
| 20260905205306 | 23 | 282 | 0.0 | 3.2 | 0.00 | 0.00 | 0.00 | 73 | 1021.1 |
| 20260905204803 | 24 | 96 | 1.6 | 4.8 | 0.00 | 0.00 | 0.00 | 72 | 1021.2 |
| 20260905204259 | 24 | 195 | 3.2 | 4.8 | 0.00 | 0.00 | 0.00 | 71 | 1021.3 |
| 20260905203758 | 24 | 161 | 1.6 | 4.8 | 0.00 | 0.00 | 0.00 | 72 | 1021.0 |
| 20260905203254 | 24 | 274 | 0.0 | 1.6 | 0.00 | 0.00 | 0.00 | 72 | 1021.1 |
| 20260905202749 | 25 | 99 | 3.2 | 3.2 | 0.00 | 0.00 | 0.00 | 72 | 1021.2 |
| 20260905202244 | 25 | 288 | 0.0 | 1.6 | 0.00 | 0.00 | 0.00 | 70 | 1021.3 |
| 20260905201739 | 23 | 271 | 0.0 | 1.6 | 0.00 | 0.00 | 0.00 | 71 | 1021.5 |
| 20260905201235 | 23 | 247 | 0.0 | 1.6 | 0.00 | 0.00 | 0.00 | 71 | 1021.2 |
| 20260905200730 | 23 | 264 | 0.0 | 1.6 | 0.00 | 0.00 | 0.00 | 71 | 1021.2 |
| 20260905200226 | 25 | 162 | 0.0 | 0.0 | 0.00 | 0.00 | 0.00 | 72 | 1021.3 |
| 20260905195723 | 24 | 71 | 0.0 | 1.6 | 0.00 | 0.00 | 0.00 | 74 | 1021.2 |
| 20260905195218 | 24 | 277 | 3.2 | 3.2 | 0.00 | 0.00 | 0.00 | 75 | 1021.2 |
| 20260905194714 | 23 | 84 | 3.2 | 4.8 | 0.00 | 0.00 | 0.00 | 75 | 1021.3 |
| 20260905194213 | 23 | 257 | 1.6 | 3.2 | 0.00 | 0.00 | 0.00 | 72 | 1021.1 |
| 20260905193708 | 23 | 208 | 0.0 | 0.0 | 0.00 | 0.00 | 0.00 | 73 | 1021.0 |
| 20260905193203 | 23 | 86 | 1.6 | 3.2 | 0.00 | 0.00 | 0.00 | 74 | 1021.2 |
| 20260905192658 | 23 | 323 | 0.0 | 1.6 | 0.00 | 0.00 | 0.00 | 75 | 1021.3 |
| 20260905192154 | 23 | 49 | 1.6 | 4.8 | 0.00 | 0.00 | 0.00 | 74 | 1021.2 |
| 20260905191654 | 25 | 95 | 0.0 | 3.2 | 0.00 | 0.00 | 0.00 | 73 | 1021.2 |
| 20260905191152 | 25 | 269 | 4.8 | 4.8 | 0.00 | 0.00 | 0.00 | 70 | 1021.1 |
| 20260905190651 | 23 | 309 | 1.6 | 3.2 | 0.00 | 0.00 | 0.00 | 77 | 1021.0 |
| 20260905190150 | 23 | 251 | 1.6 | 3.2 | 0.00 | 0.00 | 0.00 | 75 | 1021.1 |
| 20260905185649 | 24 | 265 | 1.6 | 1.6 | 0.00 | 0.00 | 0.00 | 74 | 1021.3 |
| 20260905185144 | 23 | 341 | 0.0 | 1.6 | 0.00 | 0.00 | 0.00 | 73 | 1021.3 |
| 20260905184643 | 23 | 264 | 0.0 | 1.6 | 0.00 | 0.00 | 0.00 | 73 | 1021.3 |
| 20260905184142 | 24 | 251 | 3.2 | 4.8 | 0.00 | 0.00 | 0.00 | 72 | 1021.5 |
| 20260905183642 | 25 | 250 | 1.6 | 3.2 | 0.00 | 0.00 | 0.00 | 69 | 1021.3 |
| 20260905183137 | 25 | 294 | 1.6 | 3.2 | 0.00 | 0.00 | 0.00 | 70 | 1021.4 |
| 20260905182637 | 23 | 278 | 1.6 | 4.8 | 0.00 | 0.00 | 0.00 | 74 | 1021.1 |
| 20260905182137 | 22 | 240 | 3.2 | 3.2 | 0.00 | 0.00 | 0.00 | 76 | 1021.3 |
| 20260905181632 | 23 | 110 | 1.6 | 1.6 | 0.00 | 0.00 | 0.00 | 75 | 1021.3 |
| 20260905181131 | 23 | 113 | 1.6 | 8.0 | 0.00 | 0.00 | 0.00 | 76 | 1021.5 |
| 20260905180626 | 25 | 306 | 1.6 | 8.0 | 0.00 | 0.00 | 0.00 | 75 | 1021.6 |
| 20260905180121 | 25 | 233 | 1.6 | 1.6 | 0.00 | 0.00 | 0.00 | 72 | 1021.5 |
| 20260905175620 | 25 | 296 | 1.6 | 3.2 | 0.00 | 0.00 | 0.00 | 69 | 1021.5 |
| 20260905175115 | 23 | 96 | 3.2 | 8.0 | 0.00 | 0.00 | 0.00 | 76 | 1021.5 |
| 20260905174611 | 23 | 106 | 4.8 | 4.8 | 0.00 | 0.00 | 0.00 | 73 | 1021.3 |
| 20260905174106 | 24 | 190 | 9.7 | 12.9 | 0.00 | 0.00 | 0.00 | 72 | 1021.2 |